Location: Lanoux
(43.1180°N, 1.4255°E)
Time: 16:03:36
(UTC+00:00)

SL-16 R/B - Pass Details

Date: 21 March 2026
Orbit: 985 x 1006 km, 99.8° (Epoch: 15 April)

Event Time Altitude Azimuth Distance (km) Brightness Sun altitude
Rises 04:49:38 0° 197° (SSW) 3,688 5.2 -12.9°
Reaches altitude 10° 04:52:30 10° 209° (SSW) 2,747 4.5 -12.3°
Maximum altitude 04:57:36 27° 266° (W) 1,816 3.3 -11.4°
Drops below altitude 10° 05:02:46 10° 322° (NW) 2,774 4.6 -10.5°
Sets 05:05:42 0° 334° (NNW) 3,731 5.4 -10.0°
